This demonstration page uses our WeatherBlox Daily Observations layout. Learn more.

Left ArrowRight Arrow

Hourly Observations for December 3, 2015

Temp ( °F °C ) Dew Point ( °F °C ) Humidity (%) Winds ( mph kmh ) Pressure ( in mb ) Visibility ( mi km ) Precip ( " mm )
12:53 am 00:53 Cloudy 49 9.4 45 7.2 86 86 WNW 5 7 30.03 1017 8 13 0.00 0.00
1:53 am 01:53 Cloudy 49 9.4 45 7.2 86 86 WNW 3 6 30.00 1016 7 11 0.00 0.00
2:53 am 02:53 Cloudy with Mist and Fog 49 9.4 45 7.2 86 86 Calm 30.00 1016 4 6 0.00 0.00
3:17 am 03:17 Cloudy with Mist and Fog 48 8.9 45 7.2 89 89 S 3 6 30.00 1016 3 5 0.00 0.00
3:53 am 03:53 Cloudy with Mist and Fog 48 8.9 45 7.2 89 89 Calm 29.97 1015 5 8 0.00 0.00
4:53 am 04:53 Cloudy 48 8.9 45 7.2 89 89 Calm 29.96 1015 8 13 0.00 0.00
5:53 am 05:53 Cloudy with Mist and Fog 48 8.9 44 6.7 86 86 Calm 29.96 1014 6 10 0.00 0.00
6:53 am 06:53 Cloudy 48 8.9 44 6.7 86 86 Calm 29.94 1014 8 13 0.00 0.00
7:53 am 07:53 Cloudy 48 8.9 44 6.7 86 86 NNW 3 6 29.92 1013 7 11 0.00 0.00
8:53 am 08:53 Cloudy 49 9.4 44 6.7 83 83 Calm 29.91 1013 9 14 0.00 0.00
9:53 am 09:53 Cloudy 48 8.9 43 6.1 83 83 Calm 29.89 1012 7 11 0.00 0.03
10:05 am 10:05 Cloudy 48 9 43 6 82 82 Calm 29.88 1012 7 11 0.00 0.00
10:53 am 10:53 Cloudy with Light Rain 48 9 43 6 82 82 WNW 6 9 N/A 4 6 0.00 0.00
11:06 am 11:06 Cloudy with Rain 46 8 43 6 87 87 W 6 9 29.91 1013 2 3 0.00 0.00
11:32 am 11:32 Cloudy with Rain 46 8 43 6 87 87 W 5 7 29.91 1013 1 2 0.00 0.00
11:53 am 11:53 Cloudy with Heavy Rain 46 7.8 42 5.6 86 86 W 7 11 29.91 1013 1 2 0.17 4.32
12:08 pm 12:08 Cloudy with Rain 45 7 43 6 93 93 W 7 11 29.94 1014 1 2 0.00 0.00
12:17 pm 12:17 Cloudy with Rain 45 7.2 42 5.6 90 90 WSW 7 11 29.94 1014 1 2 0.11 2.79
12:40 pm 12:40 Cloudy with Light Rain 46 8 43 6 87 87 E 10 17 29.85 1011 2 3 0.00 0.00
12:48 pm 12:48 Cloudy with Light Rain 46 8 43 6 87 87 E 12 19 29.85 1011 2 3 0.00 0.00
12:53 pm 12:53 Cloudy with Mist and Fog 46 7.8 42 5.6 86 86 ESE 10 17 29.85 1011 3 4 0.17 4.32
1:12 pm 13:12 Cloudy with Mist and Fog 46 8 43 6 87 87 VRB 5 7 29.85 1011 3 5 0.00 0.00
1:22 pm 13:22 Cloudy with Haze 46 8 43 6 87 87 NNW 6 9 29.88 1012 3 5 0.00 0.00
1:34 pm 13:34 Cloudy with Mist and Fog 46 8 43 6 87 87 NNW 5 7 29.85 1011 3 4 0.00 0.00
1:53 pm 13:53 Cloudy with Mist and Fog 46 7.8 42 5.6 86 86 W 6 9 29.84 1010 2 3 0.00 0.00
2:38 pm 14:38 Cloudy with Light Rain 46 8 43 6 87 87 NW 8 13 29.85 1011 3 4 0.00 0.00
2:53 pm 14:53 Cloudy with Light Rain 46 7.8 42 5.6 86 86 NW 8 13 29.83 1010 2 3 0.02 0.51
3:01 pm 15:01 Cloudy with Rain 46 7.8 42 5.6 86 86 WNW 7 11 29.85 1011 1 2 0.02 0.51
3:31 pm 15:31 Cloudy with Light Rain 46 7.8 43 6.1 89 89 NNW 5 7 29.85 1011 2 2 0.08 2.03
3:48 pm 15:48 Cloudy with Light Rain 46 8 43 6 87 87 Calm 29.88 1012 2 3 0.00 0.00
3:53 pm 15:53 Cloudy with Light Rain 47 8.3 43 6.1 86 86 NNW 3 6 29.85 1011 2 3 0.10 2.54
4:23 pm 16:23 Cloudy with Rain 47 8.3 43 6.1 86 86 Calm 29.88 1012 1 2 0.03 0.76
4:35 pm 16:35 Cloudy with Light Rain 46 7.8 43 6.1 89 89 E 5 7 29.88 1012 2 3 0.04 1.02
4:53 pm 16:53 Cloudy with Light Rain 47 8.3 43 6.1 86 86 Calm 29.85 1011 2 3 0.06 1.52
5:18 pm 17:18 Cloudy with Light Rain 46 8 43 6 87 87 SE 3 6 29.88 1012 2 3 0.00 0.00
5:25 pm 17:25 Cloudy with Light Rain 47 8.3 43 6.1 86 86 S 3 6 29.88 1012 3 4 0.02 0.51
5:53 pm 17:53 Cloudy with Rain 51 10.6 47 8.3 86 86 S 18 30 29.84 1011 4 6 0.04 1.02
6:53 pm 18:53 Cloudy 52 11.1 47 8.3 83 83 S 17 28 29.87 1012 10 16 0.03 0.76
7:53 pm 19:53 Cloudy with Light Rain 52 11.1 47 8.3 83 83 S 22 35 29.90 1013 10 16 0.01 0.25
8:53 pm 20:53 Cloudy 52 11.1 47 8.3 83 83 S 21 33 29.93 1014 10 16 0.06 1.52
9:53 pm 21:53 Cloudy 51 10.6 47 8.3 86 86 S 16 26 29.96 1014 10 16 0.00 0.00
10:53 pm 22:53 Mostly Cloudy 51 10.6 46 7.8 83 83 S 15 24 29.99 1016 10 16 0.00 0.00
11:21 pm 23:21 Mostly Cloudy 51 10.6 46 7.8 83 83 SSW 14 22 30.00 1016 10 16 0.00 0.00
11:38 pm 23:38 Cloudy 52 11 46 8 82 82 SSW 14 22 30.00 1016 10 16 0.00 0.00
11:53 pm 23:53 Cloudy 51 10.6 46 7.8 83 83 SSW 13 20 30.02 1017 10 16 0.00 0.00

Powered by AerisWeather